| time (UTC) | temp C | wind direction | speed KPH | gust KPH | rain 1hr cm | rain 24hr cm | rain mn cm | humidity % | barometer mb |
| 20260502163115 | 26 | 226 | 0.0 | 0.0 | 0.00 | 0.00 | 0.00 | 17 | 1016.0 |
| 20260502161615 | 27 | 204 | 3.2 | 0.0 | 0.00 | 0.00 | 0.00 | 16 | 1016.0 |
| 20260502160115 | 27 | 255 | 0.0 | 0.0 | 0.00 | 0.00 | 0.00 | 16 | 1016.0 |
| 20260502151615 | 30 | 184 | 0.0 | 0.0 | 0.00 | 0.00 | 0.00 | 13 | 1017.0 |
| 20260502150115 | 30 | 179 | 0.0 | 0.0 | 0.00 | 0.00 | 0.00 | 13 | 1017.0 |
| 20260502140115 | 31 | 189 | 0.0 | 0.0 | 0.00 | 0.00 | 0.00 | 13 | 1018.0 |
| 20260502130115 | 30 | 196 | 0.0 | 0.0 | 0.00 | 0.00 | 0.00 | 18 | 1019.0 |
| 20260502123115 | 30 | 221 | 0.0 | 0.0 | 0.00 | 0.00 | 0.00 | 18 | 1019.0 |
| 20260502121615 | 30 | 243 | 0.0 | 0.0 | 0.00 | 0.00 | 0.00 | 18 | 1019.0 |
| 20260502120115 | 29 | 188 | 0.0 | 0.0 | 0.00 | 0.00 | 0.00 | 19 | 1019.0 |
| 20260502114615 | 29 | 220 | 0.0 | 0.0 | 0.00 | 0.00 | 0.00 | 19 | 1020.0 |
| 20260502113115 | 28 | 218 | 0.0 | 0.0 | 0.00 | 0.00 | 0.00 | 19 | 1020.0 |
| 20260502111614 | 28 | 268 | 0.0 | 0.0 | 0.00 | 0.00 | 0.00 | 19 | 1020.0 |
| 20260502110115 | 28 | 242 | 1.6 | 0.0 | 0.00 | 0.00 | 0.00 | 19 | 1020.0 |
| 20260502104615 | 27 | 95 | 0.0 | 0.0 | 0.00 | 0.00 | 0.00 | 19 | 1020.0 |
| 20260502103115 | 27 | 270 | 0.0 | 0.0 | 0.00 | 0.00 | 0.00 | 20 | 1021.0 |
| 20260502101615 | 27 | 217 | 0.0 | 0.0 | 0.00 | 0.00 | 0.00 | 20 | 1021.0 |
| 20260502100115 | 26 | 215 | 0.0 | 0.0 | 0.00 | 0.00 | 0.00 | 20 | 1021.0 |
| 20260502090115 | 24 | 251 | 0.0 | 0.0 | 0.00 | 0.00 | 0.00 | 23 | 1022.0 |
| 20260502070114 | 17 | 159 | 0.0 | 0.0 | 0.00 | 0.00 | 0.00 | 33 | 1022.0 |
| 20260502064614 | 16 | 144 | 0.0 | 0.0 | 0.00 | 0.00 | 0.00 | 34 | 1022.0 |
| 20260502063115 | 15 | 123 | 0.0 | 0.0 | 0.00 | 0.00 | 0.00 | 37 | 1022.0 |
| 20260502061615 | 13 | 148 | 0.0 | 0.0 | 0.00 | 0.00 | 0.00 | 38 | 1022.0 |
| 20260502060114 | 13 | 174 | 0.0 | 0.0 | 0.00 | 0.00 | 0.00 | 41 | 1022.0 |
| 20260502054614 | 12 | 160 | 0.0 | 0.0 | 0.00 | 0.00 | 0.00 | 41 | 1022.0 |
| 20260502053114 | 11 | 131 | 0.0 | 0.0 | 0.00 | 0.00 | 0.00 | 41 | 1022.0 |
| 20260502051614 | 12 | 105 | 0.0 | 0.0 | 0.00 | 0.00 | 0.00 | 39 | 1022.0 |
| 20260502050115 | 12 | 181 | 0.0 | 0.0 | 0.00 | 0.00 | 0.00 | 39 | 1022.0 |
| 20260502044614 | 11 | 121 | 0.0 | 0.0 | 0.00 | 0.00 | 0.00 | 39 | 1022.0 |
| 20260502043115 | 11 | 117 | 0.0 | 0.0 | 0.00 | 0.00 | 0.00 | 40 | 1022.0 |
| 20260502041614 | 11 | 103 | 0.0 | 0.0 | 0.00 | 0.00 | 0.00 | 40 | 1022.0 |
| 20260502040114 | 11 | 115 | 0.0 | 0.0 | 0.00 | 0.00 | 0.00 | 39 | 1022.0 |
| 20260502034614 | 11 | 127 | 0.0 | 0.0 | 0.00 | 0.00 | 0.00 | 39 | 1021.0 |
| 20260502033114 | 11 | 153 | 0.0 | 0.0 | 0.00 | 0.00 | 0.00 | 39 | 1022.0 |
| 20260502031614 | 11 | 113 | 0.0 | 0.0 | 0.00 | 0.00 | 0.00 | 39 | 1022.0 |
| 20260502030114 | 11 | 126 | 0.0 | 0.0 | 0.00 | 0.00 | 0.00 | 40 | 1022.0 |
| 20260502024614 | 11 | 124 | 0.0 | 0.0 | 0.00 | 0.00 | 0.00 | 40 | 1022.0 |
| 20260502023114 | 11 | 165 | 0.0 | 0.0 | 0.00 | 0.00 | 0.00 | 39 | 1022.0 |
| 20260502021614 | 11 | 145 | 1.6 | 0.0 | 0.00 | 0.00 | 0.00 | 38 | 1022.0 |
| 20260502020114 | 11 | 169 | 0.0 | 0.0 | 0.00 | 0.00 | 0.00 | 38 | 1022.0 |
| 20260502014614 | 12 | 127 | 3.2 | 0.0 | 0.00 | 0.00 | 0.00 | 37 | 1022.0 |
| 20260502013114 | 12 | 127 | 0.0 | 0.0 | 0.00 | 0.00 | 0.00 | 38 | 1022.0 |
| 20260502011614 | 11 | 328 | 3.2 | 0.0 | 0.00 | 0.00 | 0.00 | 39 | 1022.0 |
| 20260502010114 | 12 | 206 | 0.0 | 0.0 | 0.00 | 0.00 | 0.00 | 37 | 1021.0 |
| 20260502004614 | 12 | 212 | 1.6 | 0.0 | 0.00 | 0.00 | 0.00 | 37 | 1022.0 |
| 20260502003114 | 11 | 181 | 0.0 | 0.0 | 0.00 | 0.00 | 0.00 | 40 | 1022.0 |
| 20260502001614 | 12 | 216 | 0.0 | 0.0 | 0.00 | 0.00 | 0.00 | 38 | 1022.0 |
| 20260502000114 | 12 | 194 | 0.0 | 0.0 | 0.00 | 0.00 | 0.00 | 38 | 1022.0 |
| 20260501234614 | 12 | 171 | 1.6 | 0.0 | 0.00 | 0.00 | 0.00 | 37 | 1022.0 |
| 20260501233114 | 14 | 174 | 0.0 | 0.0 | 0.00 | 0.00 | 0.00 | 32 | 1022.0 |
| 20260501231614 | 14 | 155 | 0.0 | 0.0 | 0.00 | 0.00 | 0.00 | 32 | 1022.0 |
| 20260501230114 | 13 | 98 | 3.2 | 0.0 | 0.00 | 0.00 | 0.00 | 33 | 1022.0 |
| 20260501224614 | 13 | 122 | 1.6 | 0.0 | 0.00 | 0.00 | 0.00 | 35 | 1022.0 |
| 20260501223114 | 13 | 134 | 3.2 | 0.0 | 0.00 | 0.00 | 0.00 | 35 | 1022.0 |
| 20260501221614 | 13 | 98 | 0.0 | 0.0 | 0.00 | 0.00 | 0.00 | 36 | 1022.0 |
| 20260501220114 | 14 | 173 | 0.0 | 0.0 | 0.00 | 0.00 | 0.00 | 35 | 1022.0 |
| 20260501214614 | 15 | 142 | 0.0 | 0.0 | 0.00 | 0.00 | 0.00 | 34 | 1022.0 |
| 20260501213114 | 15 | 173 | 0.0 | 0.0 | 0.00 | 0.00 | 0.00 | 34 | 1022.0 |
| 20260501211614 | 15 | 73 | 0.0 | 0.0 | 0.00 | 0.00 | 0.00 | 34 | 1022.0 |
| 20260501210114 | 15 | 130 | 0.0 | 0.0 | 0.00 | 0.00 | 0.00 | 34 | 1022.0 |
| 20260501204614 | 15 | 165 | 3.2 | 0.0 | 0.00 | 0.00 | 0.00 | 33 | 1022.0 |
| 20260501203114 | 16 | 146 | 3.2 | 0.0 | 0.00 | 0.00 | 0.00 | 32 | 1022.0 |
| 20260501201614 | 16 | 105 | 3.2 | 0.0 | 0.00 | 0.00 | 0.00 | 29 | 1022.0 |
| 20260501200114 | 16 | 155 | 0.0 | 0.0 | 0.00 | 0.00 | 0.00 | 28 | 1022.0 |
| 20260501194614 | 17 | 116 | 0.0 | 0.0 | 0.00 | 0.00 | 0.00 | 28 | 1022.0 |
| 20260501193114 | 17 | 88 | 0.0 | 0.0 | 0.00 | 0.00 | 0.00 | 26 | 1022.0 |
| 20260501191614 | 18 | 138 | 0.0 | 0.0 | 0.00 | 0.00 | 0.00 | 25 | 1022.0 |
| 20260501190114 | 18 | 137 | 0.0 | 0.0 | 0.00 | 0.00 | 0.00 | 22 | 1022.0 |
| 20260501184614 | 20 | 57 | 0.0 | 0.0 | 0.00 | 0.00 | 0.00 | 15 | 1021.0 |
| 20260501183114 | 20 | 17 | 0.0 | 0.0 | 0.00 | 0.00 | 0.00 | 12 | 1021.0 |
| 20260501181614 | 20 | 0 | 0.0 | 0.0 | 0.00 | 0.00 | 0.00 | 14 | 1021.0 |
| 20260501180114 | 20 | 0 | 0.0 | 0.0 | 0.00 | 0.00 | 0.00 | 12 | 1021.0 |
| 20260501174616 | 21 | 323 | 0.0 | 0.0 | 0.00 | 0.00 | 0.00 | 12 | 1021.0 |
| 20260501173114 | 21 | 311 | 0.0 | 0.0 | 0.00 | 0.00 | 0.00 | 11 | 1021.0 |
| 20260501171614 | 21 | 326 | 0.0 | 0.0 | 0.00 | 0.00 | 0.00 | 11 | 1021.0 |
| 20260501170114 | 21 | 318 | 0.0 | 0.0 | 0.00 | 0.00 | 0.00 | 11 | 1021.0 |
| 20260501164614 | 22 | 310 | 0.0 | 0.0 | 0.00 | 0.00 | 0.00 | 11 | 1021.0 |